TimeEST,TemperatureF,Dew PointF,Humidity,Sea Level PressureIn,VisibilityMPH,Wind Direction,Wind SpeedMPH,Gust SpeedMPH,PrecipitationIn,Events,Conditions,WindDirDegrees,DateUTC
12:54 AM,5.0,-7.1,58,30.17,10.0,WSW,9.2,-,N/A,,Clear,250,2013-01-23 05:54:00
1:54 AM,3.9,-7.1,60,30.18,10.0,West,5.8,-,N/A,,Clear,270,2013-01-23 06:54:00
2:54 AM,3.9,-6.0,64,30.20,10.0,West,5.8,-,N/A,,Clear,270,2013-01-23 07:54:00
3:54 AM,3.0,-6.0,66,30.19,10.0,West,6.9,-,N/A,,Clear,260,2013-01-23 08:54:00
4:54 AM,3.0,-6.0,66,30.19,10.0,West,8.1,-,N/A,,Clear,260,2013-01-23 09:54:00
5:54 AM,3.0,-5.1,69,30.20,10.0,West,5.8,-,N/A,,Clear,260,2013-01-23 10:54:00
6:54 AM,3.0,-5.1,69,30.21,10.0,WSW,8.1,-,N/A,,Clear,250,2013-01-23 11:54:00
7:54 AM,3.0,-2.9,76,30.21,10.0,WSW,9.2,-,N/A,,Clear,250,2013-01-23 12:54:00
8:54 AM,6.1,-2.0,69,30.22,10.0,WSW,11.5,-,N/A,,Clear,250,2013-01-23 13:54:00
9:54 AM,8.1,-0.9,67,30.24,10.0,SW,9.2,-,N/A,,Clear,230,2013-01-23 14:54:00
10:54 AM,10.0,-0.9,61,30.22,10.0,WNW,6.9,-,N/A,,Overcast,290,2013-01-23 15:54:00
11:54 AM,10.9,-0.9,59,30.19,10.0,West,6.9,-,N/A,,Overcast,260,2013-01-23 16:54:00
12:54 PM,10.9,-2.9,54,30.17,10.0,West,6.9,-,N/A,,Mostly Cloudy,280,2013-01-23 17:54:00
1:54 PM,12.0,-4.0,49,30.16,10.0,West,8.1,-,N/A,,Mostly Cloudy,270,2013-01-23 18:54:00
2:54 PM,14.0,1.0,56,30.17,10.0,WSW,13.8,19.6,N/A,,Overcast,250,2013-01-23 19:54:00
3:54 PM,12.0,5.0,73,30.17,4.0,Variable,6.9,-,0.00,Snow,Light Snow,0,2013-01-23 20:54:00
4:09 PM,12.2,5.0,73,30.11,1.8,WSW,6.9,-,N/A,Snow,Light Snow,240,2013-01-23 21:09:00
4:21 PM,10.4,6.8,85,30.11,0.5,SW,5.8,-,0.00,Snow,Snow,230,2013-01-23 21:21:00
4:29 PM,12.2,5.0,73,30.11,2.5,WSW,6.9,-,0.00,Snow,Light Snow,240,2013-01-23 21:29:00
4:41 PM,10.4,5.0,79,30.11,0.8,West,4.6,-,0.00,Snow,Light Snow,270,2013-01-23 21:41:00
4:54 PM,10.9,5.0,77,30.17,2.5,WNW,3.5,-,0.01,Snow,Light Snow,290,2013-01-23 21:54:00
5:02 PM,10.4,5.0,79,30.11,4.0,WNW,4.6,-,0.00,Snow,Light Snow,300,2013-01-23 22:02:00
5:21 PM,10.4,3.2,73,30.12,10.0,Calm,Calm,-,0.00,,Overcast,0,2013-01-23 22:21:00
5:54 PM,10.9,3.9,73,30.18,10.0,Calm,Calm,-,0.00,,Overcast,0,2013-01-23 22:54:00
6:54 PM,8.1,3.0,80,30.17,10.0,Calm,Calm,-,N/A,,Partly Cloudy,0,2013-01-23 23:54:00
7:54 PM,6.1,1.9,83,30.17,9.0,Calm,Calm,-,N/A,,Clear,0,2013-01-24 00:54:00
8:54 PM,3.9,1.0,88,30.16,10.0,Calm,Calm,-,N/A,,Clear,0,2013-01-24 01:54:00
9:54 PM,5.0,-0.0,80,30.16,10.0,Calm,Calm,-,N/A,,Clear,0,2013-01-24 02:54:00
10:54 PM,3.9,-0.9,80,30.16,10.0,ESE,3.5,-,N/A,,Clear,110,2013-01-24 03:54:00
11:54 PM,3.0,-2.0,80,30.15,9.0,ESE,4.6,-,N/A,,Clear,110,2013-01-24 04:54:00